Weather in Red Deer

Canada     52°15′35″N   113°48′49″W
temp.,
°C
wind,
m/s
gust,
m/s
humid.,
%
clouds,
%
prec.,
mm/h
press.,
hPa
HPBL,
m
24 october, sun
sun2400:00+2wsw239560 0.6 1001111
03:00+2sse1193100 0.0 100214
06:00+2s379461 0.0 1003133
09:00+1sse38920 0.0 1003155
12:00+7sse58643 0.0 1001416
15:00+9se710497 0.0 998830
18:00+8se7145197 0.0 997514
21:00+7se81849100 0.0 995615
25 october, mon
mon2500:00+8se81846100 0.0 993624
03:00+7se81849100 0.0 991615
06:00+7sse51353100 0.0 988469
09:00+6sse61369100 0.0 987304
12:00+8wnw466012 0.0 988631
15:00+10wnw46561 0.1 990506
18:00+7sse33650 0.1 99239
21:00+5ssw411610 0.0 994167
26 october, tue
tue2600:00+3ssw35615 0.0 99575
03:00+2sse336687 0.0 99624
06:00+2s22669 0.0 99613
09:00+2wsw226599 0.0 99719
12:00+9wnw474157 0.0 995381
15:00+11wnw45360 0.0 994694
18:00+7n22510 0.0 99610
21:00+5wsw22560 0.0 99710
27 october, wed
wed2700:00+3wsw32580 0.0 99825
03:00+2wsw22600 0.0 99813
06:00+1w22620 0.0 99911
09:00+1wnw4116779 0.0 1002219
12:00+7nw6135219 0.0 10031075
15:00+10nw6123299 0.0 10042205
18:00+7sw1141100 0.0 100710
21:00+3wsw374549 0.0 1011115
28 october, thu
thu2800:00+2wsw36475 0.0 101380
03:00+1sw3346100 0.0 101427
06:00+2wsw22465 0.0 101612
09:000sw22525 0.0 101712
12:00+7ssw343789 0.0 1016264
15:00+8s4633100 0.0 1013679
18:00+5se3540100 0.0 101280
21:00+3ese3542100 0.0 101172